[[{"header":{"parameterUnit":"m.s-1","parameterCategory":2,"la1":30.2991,"la2":30.254,"lo1":-89.0895,"lo2":-89.0444,"dy":0.0017,"dx":0.0017,"nx":28,"ny":28,"refTime":"2024-07-14T03:00:00:Z","depth":"0","parameterNumber":2,"parameterNumberName":"U-component_of_CURRENTS"},"data":[0,0,0,0,0,0,0,0,0,0,0,0,0,0,0,0,0,0,0,0,0,0,0,0,0,0,0,0,0,0,0,0,0,0,0,0,0,0,0,0,0,0,0,0,0,0,0,0,0,0,0,0,0,0,0,0,0,0,0.2424,0.2426,0,0.2588,0.259,0.2591,0.2638,0.2637,0.2636,0.2636,0.2628,0.2629,0.2629,0,0,0,0,0,0,0,0,0,0,0,0,0,0.2291,0.2292,0.2423,0.2426,0.2428,0.2588,0.259,0.2592,0.2638,0.2637,0.2636,0.2635,0.2628,0.2629,0.2629,0,0,0,0,0,0,0,0,0,0,0,0,0,0.2388,0.2292,0.2423,0.2473,0.2479,0.2587,0.259,0.2592,0.2638,0.2637,0.2636,0.2635,0.2628,0.2629,0.2629,0.2652,0,0,0.2631,0.2631,0,0,0,0,0,0,0,0,0.2382,0.2392,0.2463,0.2469,0.2477,0.2594,0.2541,0.2605,0.2638,0.2574,0.2636,0.2634,0.2603,0.2606,0.2637,0.2652,0.2652,0.2631,0.2632,0.2632,0.2632,0,0,0,0,0,0,0,0.2375,0.2387,0.2486,0.2466,0.2474,0.2535,0.2546,0.2554,0.2587,0.258,0.2584,0.2608,0.2605,0.2637,0.2637,0.2652,0.2631,0.2632,0.2632,0.2632,0.2665,0.2665,0,0,0,0,0,0,0.2355,0.2379,0.248,0.2491,0.2429,0.2538,0.255,0.2555,0.2591,0.2598,0.2608,0.2609,0.2636,0.2636,0.2637,0.2624,0.2632,0.2632,0.2633,0.2664,0.2665,0.2665,0,0,0,0,0,0,0.2351,0.2361,0.2474,0.2443,0.2461,0.254,0.2546,0.2559,0.2585,0.2615,0.2617,0.2621,0.2636,0.2636,0.2632,0.2625,0.2633,0.2633,0.2664,0.2664,0.2665,0.2625,0,0,0,0,0,0,0.2346,0.2358,0.236,0.244,0.2462,0.2523,0.2548,0.2563,0.2603,0.2606,0.2627,0.2626,0.2635,0.2631,0.2633,0.2626,0.2634,0.2663,0.2664,0.2665,0.2626,0.2624,0.2623,0,0,0,0,0,0.234,0.2361,0.2359,0.2372,0.2459,0.2524,0.254,0.2593,0.2604,0.2613,0.2625,0.2625,0.2639,0.2632,0.2634,0.2627,0.2663,0.2664,0.2665,0.2626,0.2624,0.2623,0,0,0,0,0,0,0.2323,0.237,0.2369,0.2405,0.2446,0.2532,0.2561,0.259,0.2614,0.2615,0.2627,0.2627,0.2621,0.2636,0.2628,0.2643,0.2653,0.2654,0.2623,0.2622,0.262,0.2624,0.2634,0,0,0,0,0,0.2313,0.2327,0.2379,0.2406,0.2421,0.2484,0.2519,0.2554,0.2591,0.2603,0.262,0.2634,0.2632,0.2633,0.2642,0.2649,0.2677,0.265,0.2648,0.2647,0.2654,0.2709,0.2713,0.2669,0.2669,0.2669,0,0,0.2321,0.2345,0.2358,0.2401,0.2438,0.2465,0.2501,0.2556,0.2578,0.2595,0.2621,0.2626,0.2632,0.2637,0.2637,0.2644,0.2669,0.2648,0.2647,0.2654,0.271,0.2715,0.2719,0.267,0.2669,0.2669,0,0,0.2335,0.235,0.2356,0.2381,0.2429,0.2468,0.2474,0.2546,0.2569,0.2594,0.2606,0.2609,0.2625,0.2631,0.2631,0.2631,0.2657,0.2635,0.2631,0.2684,0.2688,0.2692,0.2708,0.2714,0.2638,0.2638,0.2638,0,0.2325,0.2341,0.2373,0.238,0.2399,0.2457,0.2466,0.251,0.2574,0.2581,0.2591,0.2617,0.2622,0.2616,0.262,0.2625,0.2655,0.263,0.2682,0.2687,0.2692,0.2707,0.2714,0.2636,0.2636,0.2636,0.2637,0,0.2346,0.2345,0.2356,0.2364,0.2392,0.2418,0.2465,0.2494,0.2524,0.256,0.2569,0.2591,0.2605,0.2606,0.2611,0.264,0.2647,0.2668,0.2682,0.2693,0.2709,0.2717,0.2633,0.2634,0.2635,0.2635,0,0,0.2313,0.2354,0.2348,0.2337,0.2379,0.2404,0.243,0.246,0.2476,0.2525,0.2538,0.2548,0.2573,0.2578,0.2591,0.2638,0.2685,0.2671,0.2675,0.2679,0.2786,0.2732,0.2735,0.2725,0.2726,0.2728,0.2773,0,0.2292,0.2297,0.233,0.2327,0.232,0.2365,0.2384,0.2425,0.246,0.2495,0.2522,0.2541,0.2559,0.2566,0.2615,0.2677,0.271,0.267,0.2782,0.2784,0.273,0.2744,0.2672,0.2702,0.2781,0.2782,0.2783,0,0.2276,0.2272,0.2267,0.2278,0.2281,0.2297,0.2321,0.2354,0.2411,0.2438,0.2469,0.2508,0.2561,0.2586,0.2695,0.2675,0.2725,0.2772,0.2776,0.275,0.2746,0.2711,0.2714,0.2605,0.2796,0.2795,0.2794,0,0.2215,0.2222,0.2213,0.2217,0.2248,0.2248,0.2274,0.2325,0.2346,0.2409,0.2429,0.2501,0.2538,0.2633,0.2735,0.2726,0.2866,0.2862,0.2847,0.2843,0.2815,0.2804,0.2722,0.2934,0.2934,0.2934,0.2934,0,0.2166,0.215,0.2182,0.2168,0.2158,0.2199,0.2204,0.2246,0.2296,0.2324,0.2399,0.2438,0.2562,0.2655,0.2742,0.2824,0.2873,0.2848,0.286,0.2794,0.2782,0.2714,0.2715,0.2936,0.2935,0.2935,0.2935,0,0.2103,0.2122,0.211,0.2128,0.2127,0.2127,0.2159,0.2169,0.2227,0.2268,0.2288,0.2401,0.252,0.2633,0.2786,0.2814,0.2832,0.2924,0.2817,0.2814,0.2656,0.266,0.2563,0.247,0.289,0.289,0.2889,0,0.2081,0.2063,0.2078,0.2067,0.207,0.2069,0.207,0.2125,0.2146,0.225,0.227,0.2382,0.2464,0.2647,0.2754,0.2868,0.2794,0.2819,0.2777,0.2632,0.2647,0.2552,0.2474,0.2717,0.2715,0.2713,0.2711,0,0.2015,0.2029,0.2031,0.2007,0.1997,0.1996,0.2006,0.2009,0.2088,0.2125,0.2212,0.2285,0.2459,0.2544,0.2674,0.2748,0.2668,0.2781,0.2682,0.2542,0.239,0.231,0.2676,0.2696,0.2697,0.2699,0.2699,0.27,0.1971,0.197,0.1964,0.1951,0.1937,0.1918,0.1901,0.193,0.1952,0.2,0.2124,0.2194,0.2329,0.2508,0.2583,0.2563,0.2556,0.2473,0.2501,0.2422,0.2291,0.2593,0.2594,0.2595,0.2596,0.2597,0.2598,0,0.1876,0.1885,0.189,0.1864,0.183,0.1846,0.1848,0.1829,0.1831,0.1898,0.1961,0.2056,0.2129,0.2244,0.2292,0.226,0.2213,0.2212,0.2071,0.2016,0.2333,0.228,0.2152,0.2152,0.2152,0.2152,0.2153,0.2153,0.182,0.1786,0.1814,0.175,0.1735,0.1672,0.1664,0.166,0.169,0.1688,0.1709,0.1782,0.1886,0.1979,0.1962,0.1983,0.1854,0.1844,0.1793,0.2036,0.2061,0.2085,0.2028,0.185,0.185,0.1361,0.1358,0.1356]},{"header":{"parameterUnit":"m.s-1","parameterCategory":2,"la1":30.2991,"la2":30.254,"lo1":-89.0895,"lo2":-89.0444,"dy":0.0017,"dx":0.0017,"nx":28,"ny":28,"refTime":"2024-07-14T03:00:00:Z","depth":"0","parameterNumber":3,"parameterNumberName":"V-component_of_CURRENTS"},"data":[0,0,0,0,0,0,0,0,0,0,0,0,0,0,0,0,0,0,0,0,0,0,0,0,0,0,0,0,0,0,0,0,0,0,0,0,0,0,0,0,0,0,0,0,0,0,0,0,0,0,0,0,0,0,0,0,0,0,0.0697,0.0698,0,0.0768,0.0769,0.077,0.0766,0.0765,0.0764,0.0763,0.0751,0.0752,0.0752,0,0,0,0,0,0,0,0,0,0,0,0,0,0.0641,0.0641,0.0697,0.0698,0.0699,0.0768,0.0769,0.077,0.0766,0.0765,0.0764,0.0763,0.0751,0.0752,0.0752,0,0,0,0,0,0,0,0,0,0,0,0,0,0.0683,0.0642,0.0696,0.0706,0.0708,0.0768,0.0769,0.077,0.0766,0.0765,0.0763,0.0762,0.0751,0.0752,0.0752,0.0784,0,0,0.0755,0.0755,0,0,0,0,0,0,0,0,0.068,0.0684,0.0704,0.0706,0.0708,0.0758,0.0745,0.0771,0.0766,0.0742,0.0763,0.0761,0.0748,0.0749,0.0764,0.0784,0.0783,0.0755,0.0755,0.0756,0.0756,0,0,0,0,0,0,0,0.0677,0.0682,0.0723,0.0705,0.0707,0.0736,0.074,0.0751,0.0749,0.0744,0.0744,0.0755,0.0748,0.0764,0.0764,0.0783,0.0755,0.0755,0.0756,0.0756,0.0785,0.0786,0,0,0,0,0,0,0.0669,0.0679,0.0721,0.0726,0.0692,0.0738,0.0742,0.0742,0.0751,0.0752,0.0757,0.0755,0.0763,0.0763,0.0763,0.0771,0.0756,0.0756,0.0757,0.0785,0.0785,0.0786,0,0,0,0,0,0,0.0667,0.0671,0.0718,0.0706,0.0714,0.074,0.0741,0.0744,0.0759,0.0761,0.076,0.0767,0.0762,0.0762,0.0764,0.0771,0.0757,0.0757,0.0785,0.0785,0.0786,0.0806,0,0,0,0,0,0,0.0665,0.067,0.067,0.0705,0.0714,0.0754,0.0742,0.0747,0.0768,0.0767,0.077,0.0768,0.0761,0.0763,0.0764,0.0772,0.0758,0.0784,0.0785,0.0785,0.0805,0.0807,0.0809,0,0,0,0,0,0.0662,0.0677,0.0669,0.0675,0.0712,0.0755,0.0763,0.0777,0.077,0.0783,0.0775,0.0768,0.0767,0.0764,0.0766,0.0774,0.0784,0.0785,0.0785,0.0804,0.0806,0.0809,0,0,0,0,0,0,0.0669,0.068,0.0671,0.0691,0.0717,0.0755,0.0775,0.0782,0.0791,0.0785,0.0776,0.0774,0.0775,0.0775,0.0772,0.0783,0.0773,0.0775,0.0787,0.0789,0.0791,0.0802,0.0759,0,0,0,0,0,0.0666,0.0667,0.0691,0.0708,0.072,0.0746,0.0766,0.0776,0.0791,0.0794,0.0796,0.0791,0.0783,0.0785,0.0783,0.0799,0.0799,0.0804,0.0806,0.0807,0.0817,0.0829,0.0833,0.0788,0.0788,0.0788,0,0,0.0677,0.0681,0.0684,0.0707,0.0727,0.0755,0.0754,0.079,0.081,0.0791,0.0814,0.0799,0.0787,0.0794,0.0795,0.0794,0.0817,0.0808,0.081,0.0819,0.083,0.0835,0.0839,0.0788,0.0788,0.0788,0,0,0.0701,0.0699,0.0706,0.0724,0.0751,0.0772,0.0781,0.0817,0.0827,0.085,0.0828,0.082,0.0829,0.0818,0.0811,0.0828,0.0823,0.0824,0.0851,0.0862,0.0866,0.087,0.0863,0.0866,0.0831,0.0831,0.0831,0,0.0703,0.0717,0.0722,0.0736,0.0755,0.0777,0.0802,0.0826,0.0857,0.0865,0.0857,0.0855,0.0842,0.0838,0.0837,0.0833,0.0834,0.0842,0.0866,0.0869,0.0873,0.0865,0.0868,0.0832,0.0832,0.0832,0.0832,0,0.0734,0.0743,0.0757,0.0768,0.0794,0.0824,0.0852,0.0876,0.0888,0.0903,0.0908,0.0893,0.089,0.0881,0.0864,0.0876,0.0866,0.0862,0.0861,0.0879,0.0869,0.0871,0.0834,0.0833,0.0833,0.0833,0,0,0.0727,0.0765,0.0768,0.0774,0.081,0.0835,0.0872,0.0907,0.0924,0.0944,0.0962,0.0945,0.0936,0.0928,0.0905,0.0914,0.0926,0.0902,0.0902,0.0897,0.0942,0.0878,0.0874,0.093,0.0931,0.0931,0.092,0,0.0739,0.0773,0.0793,0.0828,0.0843,0.0871,0.0902,0.0934,0.0957,0.0982,0.0973,0.0977,0.0954,0.0946,0.0953,0.0936,0.0937,0.0929,0.0924,0.0923,0.0867,0.0877,0.0875,0.0861,0.0923,0.0923,0.0924,0,0.0745,0.0767,0.0804,0.084,0.0851,0.0877,0.0921,0.0954,0.0991,0.1005,0.1016,0.1013,0.1019,0.0997,0.0996,0.0994,0.097,0.0957,0.0956,0.0895,0.0865,0.0856,0.0864,0.0825,0.0928,0.0927,0.0927,0,0.0719,0.0767,0.0795,0.0808,0.086,0.0878,0.0912,0.0955,0.0985,0.102,0.1041,0.1049,0.1048,0.1045,0.102,0.1013,0.1018,0.1003,0.092,0.0914,0.0911,0.0903,0.0885,0.0998,0.0998,0.0999,0.0999,0,0.0707,0.0726,0.0783,0.0793,0.0831,0.0866,0.0905,0.0941,0.0988,0.1025,0.1047,0.1072,0.1063,0.1065,0.1041,0.0991,0.1035,0.0926,0.0911,0.0914,0.0907,0.0871,0.0823,0.0998,0.0998,0.0998,0.0998,0,0.0671,0.0707,0.0736,0.0794,0.0814,0.084,0.0909,0.0938,0.0985,0.1036,0.105,0.1092,0.1091,0.1073,0.1055,0.1002,0.0939,0.0937,0.0927,0.0911,0.0772,0.0724,0.0634,0.0693,0.084,0.0839,0.0837,0,0.0659,0.0667,0.0732,0.0754,0.0781,0.0827,0.0862,0.0926,0.0965,0.105,0.1075,0.1091,0.1108,0.1059,0.0982,0.0919,0.0888,0.0844,0.0819,0.0763,0.0701,0.0653,0.071,0.0824,0.0822,0.0821,0.082,0,0.0633,0.0653,0.0688,0.0734,0.0771,0.0825,0.0881,0.0914,0.0993,0.1042,0.1108,0.1132,0.1081,0.1024,0.0917,0.0866,0.0808,0.0814,0.0781,0.0699,0.0625,0.0677,0.0818,0.0811,0.0812,0.0812,0.0813,0.0813,0.0614,0.0638,0.0679,0.0725,0.0769,0.0825,0.0863,0.0926,0.0995,0.1087,0.1118,0.117,0.1088,0.0947,0.0865,0.07,0.0708,0.0649,0.06,0.0561,0.0601,0.0696,0.0651,0.0651,0.0651,0.0651,0.0651,0,0.0591,0.0628,0.067,0.0729,0.0765,0.0799,0.088,0.0923,0.0996,0.1088,0.1149,0.1159,0.1024,0.09,0.0665,0.0534,0.0551,0.047,0.0442,0.0523,0.0636,0.062,0.0538,0.0538,0.0538,0.0538,0.0538,0.0538,0.0587,0.0612,0.0648,0.0711,0.0751,0.0807,0.0851,0.0923,0.1001,0.11,0.1156,0.1211,0.1134,0.068,0.0417,0.0372,0.0366,0.0254,0.0313,0.0398,0.0413,0.0428,0.0406,0.028,0.0279,0.0276,0.0275,0.0274]}],[{"header":{"parameterUnit":"m.s-1","parameterCategory":2,"la1":30.2991,"la2":30.254,"lo1":-89.0895,"lo2":-89.0444,"dy":0.0017,"dx":0.0017,"nx":28,"ny":28,"refTime":"2024-07-14T03:00:00:Z","depth":"2","parameterNumber":2,"parameterNumberName":"U-component_of_CURRENTS"},"data":[0,0,0,0,0,0,0,0,0,0,0,0,0,0,0,0,0,0,0,0,0,0,0,0,0,0,0,0,0,0,0,0,0,0,0,0,0,0,0,0,0,0,0,0,0,0,0,0,0,0,0,0,0,0,0,0,0,0,0.0359,0.0354,0,0.0115,0.0115,0.0115,0.0305,0.0309,0.0314,0.0319,0.0635,0.0639,0.0643,0,0,0,0,0,0,0,0,0,0,0,0,0,0.068,0.0678,0.036,0.0354,0.0347,0.0115,0.0115,0.0115,0.0304,0.031,0.0316,0.0321,0.0634,0.0639,0.0643,0,0,0,0,0,0,0,0,0,0,0,0,0,0.0533,0.0678,0.0361,0.0387,0.0385,0.0115,0.0115,0.0115,0.0302,0.031,0.0317,0.0324,0.0633,0.0638,0.0644,0.0532,0,0,0.0661,0.0664,0,0,0,0,0,0,0,0,0.0542,0.0526,0.039,0.0385,0.0381,0.0217,0.0341,0.027,0.0301,0.0371,0.0319,0.0328,0.0519,0.0534,0.0514,0.0547,0.056,0.0662,0.0665,0.0668,0.067,0,0,0,0,0,0,0,0.0552,0.0535,0.0299,0.0381,0.0376,0.0301,0.0296,0.0327,0.0445,0.0366,0.037,0.0284,0.0527,0.0508,0.0524,0.0565,0.0662,0.0667,0.067,0.0673,0.0703,0.07,0,0,0,0,0,0,0.0518,0.0546,0.0306,0.0288,0.0441,0.0289,0.0284,0.0291,0.0432,0.0445,0.0277,0.0292,0.0494,0.0517,0.0536,0.0665,0.0668,0.0673,0.0677,0.0705,0.0702,0.0699,0,0,0,0,0,0,0.0528,0.0503,0.0315,0.0378,0.0345,0.0274,0.0281,0.0281,0.0334,0.0352,0.0387,0.0334,0.0501,0.0528,0.0667,0.0671,0.0676,0.0681,0.0709,0.0704,0.0701,0.0762,0,0,0,0,0,0,0.054,0.0511,0.0522,0.0378,0.0338,0.0199,0.0269,0.027,0.0247,0.0269,0.0409,0.0441,0.0509,0.0658,0.0672,0.0679,0.0686,0.0712,0.0707,0.0702,0.0763,0.076,0.0758,0,0,0,0,0,0.0554,0.0487,0.0528,0.0495,0.0356,0.0193,0.0173,0.0166,0.0243,0.0253,0.0393,0.0442,0.0633,0.0663,0.068,0.0688,0.0714,0.0708,0.0702,0.0764,0.0761,0.0758,0,0,0,0,0,0,0.0585,0.0492,0.0535,0.0442,0.0356,0.0214,0.0176,0.018,0.0279,0.0353,0.0452,0.0491,0.0586,0.0608,0.0637,0.0663,0.066,0.0657,0.07,0.0698,0.0695,0.0666,0.069,0,0,0,0,0,0.0599,0.0558,0.046,0.0373,0.0366,0.0301,0.024,0.0238,0.0255,0.0307,0.0389,0.0477,0.0541,0.0616,0.0647,0.0698,0.0664,0.0688,0.0685,0.0684,0.066,0.0569,0.0557,0.068,0.068,0.068,0,0,0.0534,0.0498,0.0452,0.0379,0.0345,0.0294,0.03,0.0216,0.0185,0.0324,0.0389,0.0474,0.0544,0.0606,0.0644,0.0661,0.0643,0.0676,0.0677,0.0653,0.0562,0.055,0.054,0.0676,0.0676,0.0677,0,0,0.0416,0.0438,0.0412,0.0382,0.032,0.0267,0.0264,0.0196,0.0224,0.0244,0.0348,0.0458,0.0516,0.0592,0.0634,0.0619,0.0614,0.0607,0.0615,0.0528,0.0518,0.0509,0.052,0.0511,0.063,0.063,0.063,0,0.0398,0.0364,0.0352,0.0358,0.0314,0.0283,0.0257,0.0221,0.0195,0.0217,0.0278,0.0376,0.0493,0.0563,0.0606,0.0621,0.0588,0.0651,0.0529,0.0519,0.0508,0.0521,0.051,0.0632,0.0632,0.0631,0.0631,0,0.027,0.0297,0.0269,0.031,0.0258,0.0203,0.0163,0.0158,0.0184,0.0155,0.0212,0.0334,0.0415,0.0448,0.0568,0.0553,0.0566,0.0528,0.0554,0.05,0.0517,0.0505,0.0635,0.0634,0.0634,0.0633,0,0,0.02,0.0195,0.0222,0.026,0.0257,0.0184,0.0163,0.0116,0.0122,0.0114,0.0122,0.0261,0.0337,0.0384,0.0501,0.0476,0.0476,0.0506,0.0501,0.055,0.034,0.0407,0.0401,0.0409,0.0406,0.0403,0.0411,0,0.0175,0.015,0.0158,0.0144,0.0152,0.0158,0.0129,0.009,0.0085,0.0082,0.0143,0.0209,0.0296,0.041,0.0383,0.0444,0.0432,0.0481,0.0354,0.0352,0.0442,0.0383,0.0321,0.0323,0.0399,0.0397,0.0395,0,0.0144,0.0136,0.0119,0.0133,0.0147,0.0129,0.0122,0.0083,0.0069,0.0094,0.0126,0.0169,0.0237,0.0279,0.0264,0.0288,0.0329,0.0334,0.0332,0.0351,0.0392,0.0368,0.0298,0.0375,0.0376,0.0378,0.0379,0,0.0159,0.0141,0.012,0.0126,0.0114,0.0139,0.0126,0.0115,0.0112,0.0127,0.0149,0.0145,0.021,0.0151,0.0248,0.0248,0.0176,0.0165,0.0239,0.0248,0.0145,0.015,0.009,0.009,0.009,0.009,0.009,0,0.018,0.0203,0.0128,0.0173,0.0168,0.0146,0.0175,0.0187,0.0172,0.0183,0.019,0.0203,0.0169,0.0152,0.0183,0.0194,0.012,0.0223,0.0224,0.0174,0.0181,0.0164,0.0173,0.009,0.009,0.009,0.009,0,0.0263,0.0224,0.0217,0.0192,0.0223,0.0211,0.0251,0.0227,0.0239,0.0251,0.0273,0.0241,0.0253,0.0222,0.0185,0.016,0.0142,0.0172,0.0183,0.0185,0.0294,0.0305,0.0212,0.0213,0.0215,0.0216,0.0217,0,0.0308,0.0314,0.0277,0.0276,0.0306,0.0303,0.0328,0.0319,0.0277,0.0284,0.0266,0.0298,0.032,0.0273,0.0228,0.0224,0.0247,0.0177,0.0153,0.0281,0.0292,0.0301,0.0309,0.0072,0.0072,0.0072,0.0072,0,0.0383,0.0356,0.0287,0.0332,0.0351,0.0337,0.0351,0.0341,0.0305,0.0329,0.033,0.0356,0.0341,0.0296,0.0295,0.0261,0.0158,0.0178,0.0225,0.007,0.0153,0.0164,0.0175,0.007,0.007,0.007,0.007,0.0071,0.0407,0.032,0.0252,0.0281,0.0321,0.0344,0.0358,0.0318,0.0319,0.0316,0.0331,0.0371,0.0252,0.0244,0.0229,0.0228,0.0227,0.0169,0.0166,0.0164,0.0165,0.0247,0.0187,0.0188,0.0189,0.0189,0.019,0,0.0398,0.0302,0.0251,0.0221,0.0262,0.0356,0.0347,0.0311,0.0338,0.0354,0.0383,0.0255,0.0225,0.0221,0.022,0.0173,0.0113,0.0167,0.0091,0.0091,0.0092,0.0087,0.0089,0.009,0.0091,0.0091,0,0,0.0334,0.0261,0.0177,0.0158,0.0238,0.0318,0.035,0.0329,0.0326,0.0314,0.0351,0.0251,0.0231,0.0168,0.0101,0.0168,0.0142,0.0141,0.0208,0.0123,0.0126,0.0062,0.0051,0,0,0,0,0]},{"header":{"parameterUnit":"m.s-1","parameterCategory":2,"la1":30.2991,"la2":30.254,"lo1":-89.0895,"lo2":-89.0444,"dy":0.0017,"dx":0.0017,"nx":28,"ny":28,"refTime":"2024-07-14T03:00:00:Z","depth":"2","parameterNumber":3,"parameterNumberName":"V-component_of_CURRENTS"},"data":[0,0,0,0,0,0,0,0,0,0,0,0,0,0,0,0,0,0,0,0,0,0,0,0,0,0,0,0,0,0,0,0,0,0,0,0,0,0,0,0,0,0,0,0,0,0,0,0,0,0,0,0,0,0,0,0,0,0,-0.0351,-0.0353,0,-0.0465,-0.0466,-0.0466,-0.0475,-0.0475,-0.0475,-0.0475,-0.0402,-0.04,-0.0398,0,0,0,0,0,0,0,0,0,0,0,0,0,-0.0251,-0.0251,-0.0351,-0.0353,-0.0356,-0.0465,-0.0466,-0.0466,-0.0476,-0.0475,-0.0475,-0.0474,-0.0402,-0.04,-0.0398,0,0,0,0,0,0,0,0,0,0,0,0,0,-0.0313,-0.0251,-0.0351,-0.0381,-0.0385,-0.0465,-0.0466,-0.0466,-0.0476,-0.0475,-0.0475,-0.0474,-0.0403,-0.04,-0.0398,-0.0393,0,0,-0.0391,-0.0389,0,0,0,0,0,0,0,0,-0.0309,-0.0315,-0.0374,-0.0379,-0.0384,-0.0464,-0.0405,-0.0436,-0.0476,-0.0431,-0.0474,-0.0474,-0.0412,-0.0409,-0.042,-0.0389,-0.0386,-0.039,-0.0389,-0.0388,-0.0387,0,0,0,0,0,0,0,-0.0305,-0.0311,-0.0386,-0.0377,-0.0383,-0.0427,-0.0433,-0.0411,-0.0412,-0.0435,-0.0438,-0.0467,-0.0412,-0.0422,-0.0418,-0.0385,-0.039,-0.0388,-0.0387,-0.0386,-0.0374,-0.0375,0,0,0,0,0,0,-0.0305,-0.0306,-0.0383,-0.0391,-0.0356,-0.0429,-0.0436,-0.0431,-0.0416,-0.0418,-0.0467,-0.0467,-0.0427,-0.0421,-0.0415,-0.0363,-0.0388,-0.0386,-0.0384,-0.0373,-0.0375,-0.0376,0,0,0,0,0,0,-0.0302,-0.031,-0.0378,-0.0361,-0.0374,-0.0432,-0.0426,-0.0434,-0.0434,-0.0445,-0.044,-0.046,-0.0426,-0.0419,-0.0382,-0.0362,-0.0384,-0.0382,-0.0372,-0.0374,-0.0375,-0.0287,0,0,0,0,0,0,-0.0298,-0.0307,-0.0309,-0.036,-0.0376,-0.041,-0.0428,-0.0437,-0.0458,-0.0458,-0.0437,-0.0431,-0.0425,-0.0385,-0.0379,-0.0359,-0.038,-0.037,-0.0373,-0.0375,-0.0289,-0.0286,-0.0283,0,0,0,0,0,-0.0293,-0.0299,-0.0307,-0.0318,-0.0373,-0.0411,-0.0421,-0.0456,-0.0458,-0.0452,-0.0438,-0.0431,-0.0397,-0.0383,-0.0376,-0.0354,-0.0369,-0.0372,-0.0374,-0.029,-0.0287,-0.0284,0,0,0,0,0,0,-0.0269,-0.0304,-0.0312,-0.033,-0.0362,-0.0416,-0.0435,-0.0448,-0.0437,-0.043,-0.042,-0.0413,-0.0389,-0.0392,-0.0377,-0.037,-0.0392,-0.0393,-0.0331,-0.0327,-0.0325,-0.0326,-0.0378,0,0,0,0,0,-0.0263,-0.0266,-0.0309,-0.0326,-0.0338,-0.0379,-0.0402,-0.0418,-0.0426,-0.0422,-0.0415,-0.0411,-0.04,-0.0375,-0.0382,-0.0346,-0.0351,-0.0344,-0.0341,-0.0338,-0.0341,-0.0363,-0.0361,-0.0384,-0.0384,-0.0384,0,0,-0.0277,-0.0286,-0.0299,-0.0321,-0.0348,-0.0361,-0.0387,-0.0414,-0.042,-0.0412,-0.0405,-0.04,-0.0397,-0.0374,-0.0363,-0.036,-0.0324,-0.0341,-0.0337,-0.0343,-0.0366,-0.0363,-0.036,-0.0386,-0.0386,-0.0386,0,0,-0.0281,-0.029,-0.0287,-0.0302,-0.0334,-0.0354,-0.0354,-0.0392,-0.0399,-0.0393,-0.0397,-0.037,-0.0366,-0.0347,-0.0337,-0.0324,-0.0324,-0.0343,-0.0296,-0.0317,-0.0314,-0.0312,-0.0255,-0.0249,-0.0322,-0.0321,-0.0321,0,-0.0285,-0.0281,-0.0299,-0.0292,-0.0313,-0.0341,-0.0344,-0.0359,-0.0381,-0.0382,-0.0385,-0.0381,-0.0354,-0.0317,-0.0305,-0.031,-0.031,-0.0292,-0.0308,-0.0307,-0.0306,-0.0249,-0.0243,-0.0318,-0.0318,-0.0318,-0.0319,0,-0.0291,-0.0282,-0.0284,-0.0273,-0.0293,-0.0302,-0.0328,-0.0334,-0.0345,-0.0363,-0.0354,-0.033,-0.0321,-0.031,-0.0285,-0.0266,-0.026,-0.031,-0.0301,-0.0297,-0.0238,-0.0233,-0.0312,-0.0313,-0.0314,-0.0315,0,0,-0.0296,-0.0285,-0.0284,-0.0269,-0.0279,-0.0294,-0.0297,-0.0309,-0.0304,-0.0324,-0.0317,-0.0281,-0.0277,-0.0269,-0.0244,-0.0235,-0.0178,-0.0254,-0.0256,-0.0168,-0.0173,-0.0157,-0.015,-0.024,-0.024,-0.024,-0.0109,0,-0.0285,-0.026,-0.0266,-0.0254,-0.0243,-0.0263,-0.0262,-0.0277,-0.0288,-0.0288,-0.028,-0.0266,-0.0261,-0.0229,-0.0224,-0.0211,-0.0175,-0.0206,-0.0217,-0.0215,-0.0181,-0.0149,-0.0202,-0.0092,-0.0105,-0.0104,-0.0103,0,-0.0283,-0.0258,-0.0238,-0.0218,-0.0219,-0.0217,-0.0217,-0.0224,-0.0231,-0.0234,-0.0229,-0.0238,-0.0192,-0.0213,-0.0176,-0.0203,-0.0174,-0.0164,-0.0161,-0.0183,-0.0194,-0.0116,-0.0083,-0.0096,-0.0096,-0.0097,-0.0097,0,-0.0259,-0.0241,-0.0217,-0.0216,-0.02,-0.0194,-0.0195,-0.0203,-0.0197,-0.0195,-0.0182,-0.0181,-0.0155,-0.0164,-0.0131,-0.0155,-0.0107,-0.0143,-0.0091,-0.0086,-0.0152,-0.0154,-0.0123,-0.0124,-0.0124,-0.0124,-0.0125,0,-0.0231,-0.0214,-0.0202,-0.0179,-0.0157,-0.0168,-0.0145,-0.0146,-0.0139,-0.012,-0.0144,-0.0124,-0.0154,-0.0137,-0.012,-0.0078,-0.0096,-0.0067,-0.0065,-0.0118,-0.0118,-0.0166,-0.0173,-0.0119,-0.012,-0.0121,-0.0122,0,-0.0208,-0.0194,-0.0168,-0.0146,-0.0132,-0.0128,-0.0106,-0.0096,-0.0087,-0.006,-0.0053,-0.0069,-0.005,-0.0056,-0.0043,-0.0041,-0.0016,0.0006,-0.0009,-0.0013,0.0033,0.0028,0.009,0.0091,0.0093,0.0093,0.0094,0,-0.0193,-0.0164,-0.0141,-0.012,-0.0104,-0.0088,-0.0067,-0.0062,-0.0049,-0.0023,-0.0008,0.0009,0.003,0.0063,0.0063,0.011,0.0051,0.0065,-0.0003,0.0053,0.0048,0.0042,0.0037,-0.0017,-0.0017,-0.0018,-0.0018,0,-0.016,-0.0156,-0.0145,-0.0088,-0.0063,-0.004,-0.0011,0.0009,0.0017,0.0056,0.0089,0.0108,0.0134,0.0106,0.0134,0.0147,0.0043,0.0065,0.0101,-0.0076,-0.0043,-0.0049,-0.0052,-0.0019,-0.0019,-0.0019,-0.0019,-0.0019,-0.015,-0.0151,-0.012,-0.0079,-0.0037,0.0009,0.0044,0.0076,0.0122,0.0185,0.0172,0.0207,0.0084,0.0137,0.0127,0.013,0.014,0.0056,0.0054,0.0053,0.0004,0.0034,0.007,0.0071,0.0071,0.0072,0.0072,0,-0.0138,-0.0126,-0.0097,-0.0051,0.0003,0.0033,0.0089,0.0135,0.0215,0.0241,0.0301,0.0189,0.0163,0.0085,0.0097,0.0086,0.0089,0.0044,-0.0015,-0.0015,-0.0014,-0.007,-0.002,-0.002,-0.002,-0.002,0,0,-0.0124,-0.0102,-0.0101,-0.0022,0.0034,0.0119,0.0165,0.0251,0.0293,0.03,0.0298,0.0305,0.0151,0.0089,0.0017,0.0006,0.0032,0.003,0.0097,0.0034,0.0037,-0.0026,-0.0112,0,0,0,0,0]}],[{"header":{"parameterUnit":"m.s-1","parameterCategory":2,"la1":30.2991,"la2":30.254,"lo1":-89.0895,"lo2":-89.0444,"dy":0.0017,"dx":0.0017,"nx":28,"ny":28,"refTime":"2024-07-14T03:00:00:Z","depth":"4","parameterNumber":2,"parameterNumberName":"U-component_of_CURRENTS"},"data":[0,0,0,0,0,0,0,0,0,0,0,0,0,0,0,0,0,0,0,0,0,0,0,0,0,0,0,0,0,0,0,0,0,0,0,0,0,0,0,0,0,0,0,0,0,0,0,0,0,0,0,0,0,0,0,0,0,0,-0.0459,-0.0459,0,-0.049,-0.0491,-0.0491,-0.0543,-0.0544,-0.0544,-0.0545,-0.0717,-0.0721,-0.0725,0,0,0,0,0,0,0,0,0,0,0,0,0,-0.0462,-0.0462,-0.0459,-0.0459,-0.0459,-0.049,-0.0491,-0.0491,-0.0543,-0.0544,-0.0545,-0.0545,-0.0716,-0.0721,-0.0726,0,0,0,0,0,0,0,0,0,0,0,0,0,-0.0478,-0.0462,-0.0459,-0.0485,-0.0488,-0.049,-0.0491,-0.0492,-0.0543,-0.0544,-0.0545,-0.0546,-0.0714,-0.072,-0.0726,-0.0746,0,0,-0.0745,-0.0747,0,0,0,0,0,0,0,0,-0.0477,-0.0478,-0.0482,-0.0484,-0.0486,-0.051,-0.0555,-0.0582,-0.0543,-0.0526,-0.0545,-0.0546,-0.0658,-0.0669,-0.0676,-0.0754,-0.0761,-0.0745,-0.0749,-0.0752,-0.0753,0,0,0,0,0,0,0,-0.0476,-0.0477,-0.0475,-0.0481,-0.0484,-0.0502,-0.0505,-0.056,-0.0592,-0.0528,-0.0531,-0.0527,-0.0661,-0.067,-0.0681,-0.0764,-0.0745,-0.0751,-0.0754,-0.0757,-0.0963,-0.0965,0,0,0,0,0,0,-0.0462,-0.0476,-0.0474,-0.0476,-0.0479,-0.0501,-0.0505,-0.0505,-0.0589,-0.06,-0.0527,-0.053,-0.0659,-0.0674,-0.0687,-0.0831,-0.0752,-0.0757,-0.0761,-0.0961,-0.0964,-0.0966,0,0,0,0,0,0,-0.0462,-0.0461,-0.0473,-0.0473,-0.0475,-0.0499,-0.0499,-0.0505,-0.0534,-0.0586,-0.0601,-0.0552,-0.0661,-0.0679,-0.0736,-0.0834,-0.076,-0.0765,-0.0959,-0.0962,-0.0965,-0.1046,0,0,0,0,0,0,-0.0462,-0.0461,-0.0475,-0.0472,-0.0475,-0.0484,-0.0498,-0.0505,-0.0528,-0.0533,-0.0612,-0.0628,-0.0663,-0.0726,-0.0742,-0.0841,-0.077,-0.0957,-0.096,-0.0964,-0.1041,-0.1051,-0.106,0,0,0,0,0,-0.0462,-0.0475,-0.0476,-0.0476,-0.0487,-0.0484,-0.0488,-0.051,-0.0528,-0.0542,-0.0584,-0.0626,-0.0762,-0.0731,-0.075,-0.0853,-0.0955,-0.0959,-0.0963,-0.1036,-0.1049,-0.106,0,0,0,0,0,0,-0.0483,-0.048,-0.0482,-0.0494,-0.0491,-0.0492,-0.0512,-0.0519,-0.0562,-0.0584,-0.0628,-0.0646,-0.0748,-0.0766,-0.0731,-0.0919,-0.0875,-0.0883,-0.0925,-0.0937,-0.0947,-0.0911,-0.0775,0,0,0,0,0,-0.049,-0.05,-0.0491,-0.05,-0.0504,-0.051,-0.0519,-0.0533,-0.0557,-0.0577,-0.0638,-0.0705,-0.0775,-0.0822,-0.0883,-0.0967,-0.0932,-0.1049,-0.1059,-0.1067,-0.1048,-0.1048,-0.1055,-0.0979,-0.0979,-0.0979,0,0,-0.0494,-0.0498,-0.0501,-0.0506,-0.0513,-0.0517,-0.0521,-0.0541,-0.0562,-0.0593,-0.0672,-0.0742,-0.08,-0.0904,-0.0955,-0.0936,-0.1073,-0.1072,-0.1079,-0.1055,-0.1053,-0.106,-0.1066,-0.0982,-0.0982,-0.0981,0,0,-0.0502,-0.0517,-0.0527,-0.0534,-0.0547,-0.0544,-0.0551,-0.0577,-0.0613,-0.0682,-0.072,-0.0817,-0.0933,-0.0988,-0.103,-0.1118,-0.1119,-0.1176,-0.1209,-0.1211,-0.1216,-0.1221,-0.119,-0.119,-0.1186,-0.1186,-0.1186,0,-0.0512,-0.0519,-0.0528,-0.0545,-0.0552,-0.0555,-0.0565,-0.0591,-0.0641,-0.0686,-0.0724,-0.0915,-0.0972,-0.108,-0.112,-0.1146,-0.1124,-0.1167,-0.1222,-0.1225,-0.1228,-0.1195,-0.1195,-0.1191,-0.119,-0.119,-0.1189,0,-0.0515,-0.0538,-0.0547,-0.0562,-0.0573,-0.0585,-0.0605,-0.065,-0.0712,-0.0759,-0.0907,-0.0994,-0.1105,-0.1169,-0.1177,-0.1261,-0.1231,-0.123,-0.1188,-0.124,-0.1202,-0.1201,-0.1197,-0.1195,-0.1194,-0.1193,0,0,-0.0501,-0.0538,-0.055,-0.0566,-0.0589,-0.0595,-0.0639,-0.068,-0.0735,-0.0854,-0.0954,-0.1103,-0.1179,-0.1224,-0.1284,-0.1299,-0.1317,-0.1279,-0.1277,-0.1238,-0.1295,-0.1134,-0.1116,-0.1329,-0.1329,-0.1329,-0.126,0,-0.0502,-0.0526,-0.0551,-0.058,-0.0588,-0.0623,-0.0662,-0.0717,-0.08,-0.0904,-0.1027,-0.1155,-0.119,-0.1285,-0.1306,-0.1314,-0.1316,-0.1333,-0.1257,-0.1253,-0.1096,-0.111,-0.133,-0.1259,-0.1258,-0.1258,-0.1257,0,-0.0502,-0.0516,-0.0548,-0.0595,-0.0608,-0.0651,-0.0725,-0.0773,-0.0894,-0.098,-0.1122,-0.1196,-0.1284,-0.1307,-0.1323,-0.1334,-0.1313,-0.1306,-0.1303,-0.1113,-0.1087,-0.1195,-0.1254,-0.1254,-0.1254,-0.1254,-0.1255,0,-0.0475,-0.0522,-0.0548,-0.0565,-0.0616,-0.0681,-0.0733,-0.0834,-0.0886,-0.1055,-0.1118,-0.1233,-0.1306,-0.1308,-0.1289,-0.1312,-0.1263,-0.1291,-0.1121,-0.1109,-0.1241,-0.1236,-0.1275,-0.1275,-0.1276,-0.1276,-0.1276,0,-0.0462,-0.0485,-0.0564,-0.0584,-0.0637,-0.0712,-0.0805,-0.0879,-0.1007,-0.1054,-0.1184,-0.1202,-0.1305,-0.1284,-0.1276,-0.1165,-0.1247,-0.1101,-0.1076,-0.1278,-0.1279,-0.1239,-0.1236,-0.1273,-0.1274,-0.1274,-0.1275,0,-0.0433,-0.0474,-0.0503,-0.0592,-0.0633,-0.0698,-0.0822,-0.0869,-0.1014,-0.1081,-0.113,-0.1182,-0.1106,-0.1145,-0.1122,-0.1114,-0.1054,-0.0995,-0.1175,-0.1165,-0.0906,-0.0908,-0.0801,-0.0795,-0.0789,-0.0785,-0.0781,0,-0.0418,-0.0436,-0.0508,-0.0531,-0.0593,-0.0696,-0.0735,-0.0876,-0.0906,-0.1007,-0.0995,-0.098,-0.0979,-0.0816,-0.0867,-0.0824,-0.082,-0.0843,-0.0904,-0.0868,-0.0855,-0.0866,-0.0875,-0.0772,-0.0771,-0.0769,-0.0768,0,-0.038,-0.0418,-0.0442,-0.0484,-0.0544,-0.0561,-0.0647,-0.0653,-0.0776,-0.0894,-0.0822,-0.0806,-0.0696,-0.0654,-0.0631,-0.061,-0.0871,-0.0787,-0.08,-0.0857,-0.0832,-0.0827,-0.0843,-0.0749,-0.0752,-0.0754,-0.0755,0,-0.0366,-0.0361,-0.0398,-0.0437,-0.0455,-0.0422,-0.0477,-0.0482,-0.0526,-0.0656,-0.0589,-0.058,-0.0621,-0.0531,-0.0493,-0.0468,-0.047,-0.0544,-0.0569,-0.0591,-0.0558,-0.0498,-0.0265,0,0,0,0,0,-0.0347,-0.0332,-0.0342,-0.0347,-0.0342,-0.0354,-0.0387,-0.0437,-0.0536,-0.0447,-0.054,-0.0425,-0.0375,-0.0351,-0.0272,-0.0375,-0.0468,-0.0291,-0.0565,-0.0645,-0.0667,-0.065,0,0,0,0,0,0,-0.0329,-0.0332,-0.0319,-0.0255,-0.0235,-0.021,-0.0215,-0.028,-0.023,-0.0343,-0.0262,-0.0411,-0.0299,-0.038,-0.0258,-0.0264,-0.0434,-0.031,-0.0309,-0.0633,-0.0652,-0.067,-0.066,0,0,0,0,0]},{"header":{"parameterUnit":"m.s-1","parameterCategory":2,"la1":30.2991,"la2":30.254,"lo1":-89.0895,"lo2":-89.0444,"dy":0.0017,"dx":0.0017,"nx":28,"ny":28,"refTime":"2024-07-14T03:00:00:Z","depth":"4","parameterNumber":3,"parameterNumberName":"V-component_of_CURRENTS"},"data":[0,0,0,0,0,0,0,0,0,0,0,0,0,0,0,0,0,0,0,0,0,0,0,0,0,0,0,0,0,0,0,0,0,0,0,0,0,0,0,0,0,0,0,0,0,0,0,0,0,0,0,0,0,0,0,0,0,0,0.0009,0.0009,0,-0.0026,-0.0027,-0.0028,-0.0017,-0.0015,-0.0014,-0.0013,0.0003,0.0002,0.0002,0,0,0,0,0,0,0,0,0,0,0,0,0,0.0026,0.0025,0.0009,0.0009,0.0009,-0.0026,-0.0027,-0.0028,-0.0017,-0.0015,-0.0014,-0.0012,0.0003,0.0002,0.0002,0,0,0,0,0,0,0,0,0,0,0,0,0,0.0002,0.0025,0.0009,0.0015,0.0015,-0.0026,-0.0027,-0.0028,-0.0017,-0.0015,-0.0013,-0.0012,0.0004,0.0003,0.0001,-0.0043,0,0,-0.0002,-0.0002,0,0,0,0,0,0,0,0,0.0004,0.0001,0.0014,0.0014,0.0015,-0.001,-0.0015,-0.0029,-0.0018,-0.0011,-0.0013,-0.0011,0.0006,0.0004,-0.0015,-0.0042,-0.0042,-0.0002,-0.0003,-0.0003,-0.0004,0,0,0,0,0,0,0,0.0005,0.0002,-0.001,0.0014,0.0014,-0.0001,-0.0003,-0.0018,-0.0016,-0.0011,-0.0009,-0.0005,0.0006,-0.0014,-0.0014,-0.0041,-0.0002,-0.0003,-0.0004,-0.0004,-0.0061,-0.0062,0,0,0,0,0,0,0.0022,0.0004,-0.0009,-0.0011,0.002,-0.0002,-0.0004,-0.0009,-0.0017,-0.0015,-0.0006,-0.0004,-0.0013,-0.0013,-0.0013,-0.002,-0.0003,-0.0004,-0.0005,-0.006,-0.0061,-0.0062,0,0,0,0,0,0,0.0022,0.002,-0.0008,0.0001,-0.0003,-0.0004,-0.0009,-0.001,-0.0019,-0.0013,-0.0011,-0.0012,-0.0012,-0.0012,-0.0033,-0.0021,-0.0005,-0.0006,-0.0059,-0.006,-0.0061,-0.0063,0,0,0,0,0,0,0.0022,0.002,0.0014,0.0002,-0.0003,-0.0031,-0.0011,-0.0012,-0.0017,-0.0015,-0.0018,-0.0015,-0.001,-0.0031,-0.0034,-0.0022,-0.0007,-0.0058,-0.0059,-0.0061,-0.0062,-0.0064,-0.0066,0,0,0,0,0,0.0023,0.0004,0.0014,0.0013,-0.0008,-0.0031,-0.0036,-0.0033,-0.0019,-0.0034,-0.0038,-0.0014,-0.0042,-0.0034,-0.0036,-0.0024,-0.0057,-0.0059,-0.0061,-0.0061,-0.0064,-0.0066,0,0,0,0,0,0,0.0005,0.0003,0.0014,-0.0004,-0.0011,-0.0027,-0.0043,-0.0036,-0.0055,-0.0051,-0.004,-0.0039,-0.0047,-0.0049,-0.004,-0.0047,-0.004,-0.0043,-0.0039,-0.0042,-0.0044,-0.0043,-0.0008,0,0,0,0,0,0.0001,-0.001,-0.0012,-0.0025,-0.0032,-0.0037,-0.0046,-0.0045,-0.0056,-0.0062,-0.006,-0.0061,-0.0063,-0.0062,-0.0071,-0.0087,-0.0074,-0.0078,-0.008,-0.0082,-0.0084,-0.0063,-0.0062,-0.0068,-0.0068,-0.0068,0,0,-0.0006,-0.0009,-0.0014,-0.0029,-0.0038,-0.0063,-0.004,-0.0059,-0.0078,-0.0059,-0.0087,-0.0073,-0.0072,-0.0083,-0.0085,-0.0078,-0.0075,-0.0084,-0.0085,-0.0087,-0.0064,-0.0063,-0.0063,-0.0069,-0.0069,-0.0069,0,0,-0.0034,-0.0034,-0.0054,-0.0067,-0.0078,-0.0085,-0.0087,-0.0101,-0.0106,-0.0131,-0.0112,-0.0102,-0.0115,-0.0107,-0.0104,-0.013,-0.0089,-0.0116,-0.012,-0.0099,-0.0098,-0.0096,-0.0078,-0.0075,-0.0113,-0.0113,-0.0113,0,-0.0042,-0.0066,-0.0065,-0.0092,-0.0105,-0.0093,-0.0123,-0.0138,-0.0154,-0.0164,-0.0139,-0.0139,-0.0129,-0.0132,-0.0125,-0.0132,-0.0108,-0.0106,-0.0099,-0.0098,-0.0096,-0.0078,-0.0075,-0.0113,-0.0113,-0.0113,-0.0113,0,-0.0082,-0.0106,-0.0124,-0.0149,-0.0168,-0.0193,-0.0203,-0.022,-0.0211,-0.0215,-0.0213,-0.0191,-0.018,-0.0166,-0.0148,-0.0128,-0.0111,-0.0104,-0.0087,-0.0095,-0.0076,-0.0072,-0.0113,-0.0113,-0.0113,-0.0113,0,0,-0.0096,-0.014,-0.0149,-0.0171,-0.02,-0.0221,-0.0256,-0.0284,-0.0305,-0.0288,-0.0295,-0.0269,-0.0226,-0.0219,-0.0178,-0.0148,-0.0108,-0.0109,-0.0107,-0.008,-0.0048,-0.0115,-0.0117,-0.0083,-0.0083,-0.0082,-0.0038,0,-0.0127,-0.018,-0.0199,-0.0256,-0.0285,-0.0297,-0.0333,-0.0356,-0.0359,-0.0367,-0.0321,-0.0308,-0.0255,-0.0219,-0.0183,-0.0129,-0.0098,-0.012,-0.0054,-0.0052,-0.0101,-0.0116,-0.0081,-0.0035,-0.0034,-0.0033,-0.0033,0,-0.0168,-0.0195,-0.0253,-0.0307,-0.0323,-0.0361,-0.0408,-0.0434,-0.0447,-0.0437,-0.0403,-0.036,-0.03,-0.025,-0.0159,-0.0165,-0.0104,-0.0062,-0.006,-0.012,-0.0113,-0.0026,-0.0026,-0.0027,-0.0027,-0.0028,-0.0028,0,-0.0178,-0.024,-0.0284,-0.0304,-0.0361,-0.0399,-0.0425,-0.0461,-0.0483,-0.0466,-0.0456,-0.0393,-0.0338,-0.026,-0.016,-0.0143,-0.007,-0.0046,-0.0056,-0.0059,-0.0008,-0.001,0.0011,0.0011,0.0011,0.0011,0.001,0,-0.021,-0.025,-0.0297,-0.0326,-0.0388,-0.0417,-0.0479,-0.0497,-0.0512,-0.0533,-0.0474,-0.0455,-0.033,-0.0271,-0.0182,-0.0119,-0.0087,-0.0064,-0.0057,-0.0011,-0.0014,-0.0005,-0.0007,0.0012,0.0012,0.0012,0.0011,0,-0.0229,-0.0257,-0.0314,-0.0375,-0.0401,-0.0444,-0.0509,-0.0541,-0.0548,-0.0562,-0.0542,-0.0487,-0.041,-0.0317,-0.0198,-0.0157,-0.0088,-0.0073,-0.0042,-0.0032,-0.0081,-0.0084,-0.0078,-0.008,-0.0081,-0.0083,-0.0084,0,-0.0245,-0.0274,-0.0344,-0.0383,-0.0421,-0.0482,-0.0524,-0.0551,-0.0568,-0.0586,-0.0577,-0.0524,-0.0476,-0.0344,-0.0272,-0.0152,-0.0131,-0.01,-0.0078,-0.0099,-0.0092,-0.0092,-0.0093,-0.0087,-0.0087,-0.0088,-0.0088,0,-0.0268,-0.0292,-0.0332,-0.0398,-0.0456,-0.0514,-0.0562,-0.0566,-0.0587,-0.0608,-0.0564,-0.0517,-0.0458,-0.0354,-0.0275,-0.0189,-0.0127,-0.0118,-0.0113,-0.0091,-0.011,-0.0102,-0.01,-0.0095,-0.0094,-0.0093,-0.0093,0,-0.0283,-0.0306,-0.0347,-0.0408,-0.0473,-0.051,-0.0543,-0.0545,-0.0554,-0.0551,-0.0551,-0.0493,-0.0461,-0.0378,-0.0313,-0.0242,-0.0214,-0.0172,-0.0163,-0.0156,-0.0206,-0.0243,-0.0269,0,0,0,0,0,-0.0291,-0.0304,-0.0352,-0.0407,-0.0466,-0.05,-0.055,-0.0569,-0.0586,-0.0538,-0.0533,-0.0473,-0.04,-0.0377,-0.0307,-0.0365,-0.0225,-0.029,-0.0175,-0.0128,-0.0121,-0.0175,0,0,0,0,0,0,-0.0297,-0.033,-0.0336,-0.0381,-0.0418,-0.0474,-0.0501,-0.0523,-0.048,-0.0493,-0.0426,-0.0461,-0.0363,-0.0407,-0.0297,-0.0293,-0.0215,-0.0269,-0.0268,-0.0133,-0.0126,-0.012,-0.0173,0,0,0,0,0]}]]